Location: Burbank
(38.7788°N, 114.0429°W)
Time: 00:18:35
(UTC+00:00)

Vanguard 1 Rocket - All Passes

Search period start: 12 May 2026 00:00
Search period end: 22 May 2026 00:00
Orbit: 655 x 4212 km, 34.3° (Epoch: 11 May)

Date Brightness Start Highest point End Pass type
(mag) Time Alt. Az. Time Alt. Az. Time Alt. Az.
12 May - 00:15:25 10° WSW 00:26:55 72° SSE 00:49:04 10° E daylight
12 May - 02:40:46 10° W 02:57:12 73° S 03:23:10 10° ESE visible
12 May - 05:08:29 10° W 05:28:44 50° SSW 05:52:36 10° SE visible
12 May - 07:42:31 10° W 07:58:11 21° SW 08:13:22 10° S visible
12 May - 20:43:16 10° S 20:48:43 20° SE 20:56:45 10° E daylight
12 May - 23:03:46 10° SW 23:13:09 60° SSE 23:31:35 10° E daylight
13 May - 01:28:04 10° W 01:41:43 76° S 02:06:16 10° ESE daylight
13 May - 03:54:27 10° W 04:12:52 61° SSW 04:38:18 10° SE visible
13 May - 06:24:28 10° W 06:43:28 32° SW 07:03:35 10° S visible
13 May - 21:52:47 10° SW 22:00:22 43° SE 22:14:24 10° E daylight
14 May - 00:15:53 10° WSW 00:27:01 74° S 00:48:48 10° E daylight
14 May - 02:41:12 10° W 02:57:05 69° SSW 03:22:39 10° ESE visible
14 May - 05:08:59 10° W 05:28:09 44° SW 05:51:20 10° SSE visible
14 May - 07:45:28 10° W 07:57:23 16° SW 08:09:16 10° SSW visible
14 May - 20:42:43 10° S 20:48:27 25° SE 20:57:24 10° E daylight
14 May - 23:04:09 10° WSW 23:13:14 65° SSE 23:31:22 10° E daylight
15 May - 01:28:33 10° W 01:41:47 74° S 02:05:53 10° ESE daylight
15 May - 03:54:53 10° W 04:12:32 55° SSW 04:37:22 10° SE visible
15 May - 06:25:40 10° W 06:42:44 26° SW 07:01:16 10° S visible
15 May - 21:52:58 10° SW 22:00:20 49° SSE 22:14:22 10° E daylight
16 May - 00:16:23 10° W 00:27:12 75° S 00:48:30 10° E daylight
16 May - 02:41:40 10° W 02:56:59 64° SSW 03:21:57 10° SE visible
16 May - 05:09:41 10° W 05:27:36 38° SW 05:49:42 10° SSE visible
16 May - 07:52:43 10° WSW 07:56:44 11° SW 08:00:46 10° SW visible
16 May - 20:42:30 10° SSW 20:48:17 30° SE 20:57:49 10° E daylight
16 May - 23:04:37 10° WSW 23:13:25 68° SSE 23:31:09 10° E daylight
17 May - 01:29:04 10° W 01:41:51 71° S 02:05:24 10° ESE daylight
17 May - 03:55:25 10° W 04:12:12 48° SSW 04:36:09 10° SE visible
17 May - 06:27:32 10° W 06:42:07 21° SW 06:58:08 10° S visible
17 May - 19:33:40 10° SSE 19:36:49 14° SE 19:40:46 10° ESE daylight
17 May - 21:53:18 10° SW 22:00:27 54° SSE 22:14:18 10° E daylight
18 May - 00:16:55 10° W 00:27:24 74° S 00:48:11 10° ESE daylight
18 May - 02:42:11 10° W 02:56:52 58° SSW 03:21:04 10° SE visible
18 May - 05:10:39 10° W 05:27:07 31° SW 05:47:36 10° SSE visible
18 May - 20:42:32 10° SSW 20:48:16 35° SE 20:58:04 10° E daylight
18 May - 23:05:09 10° WSW 23:13:40 71° S 23:30:56 10° E daylight
19 May - 01:29:36 10° W 01:41:57 66° SSW 02:04:47 10° ESE daylight
19 May - 03:56:06 10° W 04:11:55 42° SSW 04:34:36 10° SSE visible
19 May - 06:30:42 10° WSW 06:41:38 15° SW 06:53:32 10° SSW visible
19 May - 19:32:47 10° S 19:36:41 18° SE 19:41:59 10° E daylight
19 May - 21:53:44 10° WSW 22:00:40 60° SSE 22:14:14 10° E daylight
20 May - 00:17:29 10° W 00:27:38 71° S 00:47:48 10° ESE daylight
20 May - 02:42:45 10° W 02:56:47 52° SSW 03:19:56 10° SE visible
20 May - 05:12:05 10° W 05:26:44 25° SW 05:44:53 10° S visible
20 May - 20:42:44 10° SW 20:48:23 42° SSE 20:58:15 10° E daylight
20 May - 23:05:43 10° W 23:13:59 71° S 23:30:44 10° E daylight
21 May - 01:30:10 10° W 01:42:03 61° SSW 02:04:01 10° SE daylight
21 May - 03:56:58 10° W 04:11:41 35° SW 04:32:40 10° SSE visible
21 May - 06:40:23 10° SW 06:41:20 10° SW 06:42:17 10° SW visible
21 May - 19:32:26 10° SSW 19:36:41 23° SE 19:42:45 10° E daylight
21 May - 21:54:14 10° WSW 22:00:59 64° SSE 22:14:10 10° E daylight
